Torna al catalogo

STARLINK-34241

AttivoComunicazioniVLEO
NORAD 64229·PAYLOAD·🇺🇸 United States

Lanciato May 31, 2025 da Vandenberg Space Force Base

Loading…

Prossimi Passaggi (prossime 24 ore)

TLE

AggiornatoSource: CelesTrak SupGP

Epoca: Sep 15, 2026, 04:03 UTC

1 64229C 25117AC  26258.16923611 -.00047510  00000+0 -14038-2 0  2585
2 64229  53.1571 236.3137 0001405  92.6278 192.5675 15.34412919    11

Traccia STARLINK-34241 in tempo reale con AllMySat

Download on the App Store